Home   Weather   60°27'N, 26°02'E   Past weeks
Flag for Finland

Past Weather in 60°27'N, 26°02'E, Finland — Yesterday and Last 2 Weeks

Now
54 °F

Clear.


Feels Like: 52 °F
Forecast: 70 / 56 °F
Wind: 7 mph from Northeast

Location: Helsinki-Vantaa

Current Time: Jul 17, 2019 at 4:27:10 am

Latest Report: Jul 17, 2019 at 3:50 am


Visibility: 10 mi

Pressure: 29.80 "Hg

Humidity: 88%

Dew Point: 50 °F

Location of 60°27'N, 26°02'ELocation

Past Weather in 60°27'N, 26°02'E — Graph

°F

60°27'N, 26°02'E Temperature Yesterday

Maximum temperature yesterday: 68 °F (at 2:20 pm)
Minimum temperature yesterday: 55 °F (at 10:50 pm)
Average temperature yesterday: 60 °F

High & Low Weather Summary for the Past Weeks

 TemperatureHumidityPressure
High70 °F (Jul 10, 3:50 pm)100% (Jul 2, 10:20 pm)29.89 "Hg (Jul 2, 10:20 pm)
Low39 °F (Jul 12, 3:50 am)26% (Jul 12, 4:50 pm)29.33 "Hg (Jul 5, 9:20 am)
Average57 °F73%29.66 "Hg
* Reported Jul 2 3:20 am — Jul 17 3:20 am, 60°27'N, 26°02'E. Weather by CustomWeather, © 2019

Note: Actual official high and low records may vary slightly from our data, if they occured in-between our weather recording intervals... More about our weather records

Advertising

60°27'N, 26°02'E Weather History for the Previous 24 Hours

Scroll right to see more
 ConditionsComfort  
Time TempWeatherWind HumidityBarometerVisibility
3:20 am
Wed, Jul 17
54 °FClear.8 mph88%29.80 "Hg10 mi
2:50 am55 °FClear.8 mph88%29.80 "Hg10 mi
2:20 am55 °FClear.7 mph88%29.80 "Hg10 mi
1:50 am55 °FClear.7 mph88%29.80 "Hg10 mi
1:20 am55 °FPassing clouds.6 mph94%29.80 "HgN/A
12:50 am57 °FClear.6 mph88%29.80 "Hg10 mi
12:20 am55 °FClear.5 mph94%29.80 "Hg10 mi
11:50 pm
Tue, Jul 16
55 °FClear.5 mph94%29.80 "Hg10 mi
11:20 pm55 °FClear.5 mph94%29.80 "Hg10 mi
10:50 pm55 °FClear.3 mph100%29.80 "Hg10 mi
10:20 pm57 °FSunny.5 mph94%29.80 "Hg10 mi
9:50 pm59 °FSunny.2 mph94%29.80 "Hg10 mi
9:20 pm59 °FSunny.5 mph94%29.80 "Hg10 mi
8:50 pm61 °FSunny.2 mph83%29.80 "Hg10 mi
8:20 pm61 °FPassing clouds.5 mph83%29.80 "HgN/A
7:50 pm61 °FPassing clouds.5 mph77%29.77 "HgN/A
7:20 pm61 °FSunny.6 mph83%29.77 "Hg10 mi
6:50 pm61 °FSunny.7 mph83%29.77 "Hg10 mi
6:20 pm61 °FScattered showers. Passing clouds.7 mph83%29.77 "HgN/A
5:50 pm59 °FScattered showers. Passing clouds.6 mph88%29.77 "HgN/A
5:20 pm59 °FSprinkles. Scattered clouds.10 mph82%29.77 "HgN/A
4:50 pm59 °FThunderstorms. Scattered clouds.10 mph82%29.77 "HgN/A
4:20 pm57 °FThunderstorms. Scattered clouds.13 mph88%29.77 "HgN/A
3:50 pm59 °FThunderstorms. Partly sunny.26 mph88%29.74 "Hg3 mi
3:20 pm68 °FScattered showers. Scattered clouds.14 mph60%29.74 "HgN/A
2:50 pm68 °FScattered showers. Passing clouds.16 mph56%29.74 "HgN/A
2:20 pm68 °FScattered showers. Passing clouds.14 mph64%29.71 "HgN/A
1:50 pm66 °FPassing clouds.13 mph68%29.74 "HgN/A
1:20 pm63 °FSprinkles. Passing clouds.12 mph83%29.71 "HgN/A
12:50 pm63 °FScattered showers. Scattered clouds.10 mph83%29.74 "HgN/A
12:20 pm61 °FSprinkles. Scattered clouds.9 mph88%29.74 "HgN/A
11:50 am59 °FSprinkles. Scattered clouds.12 mph94%29.74 "HgN/A
11:20 am59 °FSprinkles. Scattered clouds.8 mph88%29.74 "HgN/A
10:50 am61 °FScattered showers. Passing clouds.8 mph83%29.74 "HgN/A
10:20 am59 °FLight rain. Passing clouds.8 mph94%29.71 "HgN/A
9:50 am61 °FLight rain. Passing clouds.9 mph77%29.71 "HgN/A
9:20 am59 °FLight rain. Passing clouds.10 mph88%29.71 "HgN/A
8:50 am59 °FLight rain. Passing clouds.12 mph82%29.71 "HgN/A
8:20 am59 °FLight rain. Passing clouds.10 mph82%29.71 "HgN/A
7:50 am59 °FLight rain. Partly sunny.13 mph82%29.71 "HgN/A
7:20 am59 °FLight rain. Scattered clouds.10 mph82%29.71 "HgN/A
6:50 am59 °FLight rain. Scattered clouds.12 mph88%29.71 "HgN/A
6:20 am59 °FScattered clouds.9 mph88%29.71 "HgN/A
5:50 am59 °FPartly sunny.7 mph88%29.71 "HgN/A
5:20 am57 °FScattered clouds.6 mph88%29.71 "HgN/A
4:50 am57 °FSunny.7 mph88%29.71 "Hg10 mi
4:20 am59 °FClear.9 mph82%29.71 "Hg10 mi
Weather by CustomWeather, © 2019

See weather overview